星链-5849 (STARLINK-5849 )

导读

STARLINK-5849是美国SpaceX公司星链(Starlink)卫星互联网项目的量产低轨通信卫星,于2023年3月17日发射入轨。它属于星链星座组网的组成部分,采用平板设计、霍尔推进系统,搭载相控阵通信天线,可通过星间激光链路实现高速数据传输,为全球偏远地区提供低延迟宽带互联网服务,目前已在轨运行近三年,承担全球卫星互联网组网覆盖任务。

基本信息
目录编号:
55924
目录名称:
STARLINK-5849
国际标识:
2023-037L
轨道中心:
EARTH
卫星名称:
星链-5849
卫星全名:
星链-5849 (STARLINK-5849 )
卫星状态:
在轨 (已飞行1186 天)
发射日期:
2023-03-17 UTC
国别 :
美国 (US)
星等 :
--
轨道信息
数据来源 国际轨道数据
星历时间: 2026-06-15T00:14:05+0800
8小时前
查看轨道信息
半长轴: 6950.191km
偏心率: 0.0002941
轨道倾角: 70.000°
近地点辐角 270.507°
升交点赤经 40.090°
平近点角 89.575°
近地点: 570.009km
远地点: 574.099km
周期: 96.107分钟
每日圈数: 14.983309
详细信息
固有亮度:
5
最大亮度:
2.5
卫星平台:
Starlink v1.5
覆盖范围:
全球
运营商:
太空探索技术公司
运营商所在国:
美国
制造商(研发单位):
太空探索技术公司
制造商所在国:
美国
使用方式:
暂无
卫星简介
星链(Starlink)计划是由太空探索技术公司(SpaceX)提出的一个巨型低轨卫星互联网星座项目,计划在2019年至2024年间在太空搭建由约1.2万颗卫星组成的“星链”网络,其中1584颗将部署在地球上空550千米处的近地轨道,并从2020年开始工作。该卫星仍在工作。
2D轨道图
3D轨道图
轨道高度分析图
轨道倾角分析图
轨道综合分析图
查看轨道综合分析图